Temp_Advection
nan nan nan nan nan nan nan nan nan nan nan nan nan nan nan nan nan nan nan nan nan nan
nan -0 -0 0 0 0 0 0 0 0 0 0 0 0 0 0 0 0 -0 -0 0 nan
nan -0 -0 -0 0 0 0 0 0 0 0 0 0 0 0 0 0 0 0 0 0 nan
nan -0 -0 -0 -0 -0 -0 -0 -0 -0 0 0 0 0 0 0 0 0 0 0 0 nan
nan -0 -0 -0 -0 -0 -0 0 0 -0 0 0 0 0 0 0 0 0 0 0 0 nan
nan -0 -0 -0 -0 -0 -0 -0 0 0 0 0 0 0 0 0 0 0 0 0 0 nan
nan -0 -0 -0 -0 -0 -0 0 0 0 0 0 0 0 0 0 0 0 0 0 0 nan
nan -0 -0 -0 -0 -0 -0 -0 -0 0 0 0 0 0 0 0 0 0 1 1 0 nan
nan -0 -0 -0 -0 -0 -0 -0 -0 -0 -0 -0 0 0 0 0 0 0 0 0 1 nan
nan -0 -0 -0 -0 -0 -0 -0 -0 -0 -0 -0 0 0 0 0 -0 0 0 1 1 nan
nan -0 -0 -0 -0 -0 -0 -0 -0 -0 -0 -0 -0 -0 0 -0 -0 0 0 1 1 nan
nan -0 -0 -0 -0 -0 -0 -0 -0 -0 -0 -0 -0 -0 -0 -0 -0 0 0 1 1 nan
nan -0 -0 -0 -0 -0 -0 -0 -0 -0 -0 -0 -0 -0 0 -0 -0 -0 0 1 1 nan
nan nan nan nan nan nan nan nan nan nan nan nan nan nan nan nan nan nan nan nan nan nan
Wind_Speed
14 13 15 19 21 23 23 22 21 22 22 21 20 21 20 20 19 18 18 17 16 16
14 15 19 23 25 24 24 24 23 22 22 22 22 22 21 21 20 20 20 20 19 18
16 18 22 25 24 23 22 21 21 22 21 22 22 23 22 22 21 22 21 21 21 19
19 21 22 21 21 21 20 20 19 19 19 20 21 22 23 23 22 23 23 22 22 21
20 20 19 18 18 18 17 16 15 16 17 18 20 21 22 23 24 25 25 23 22 22
16 16 16 17 16 16 16 15 15 15 16 18 19 21 22 24 24 25 26 25 24 23
15 15 14 14 14 15 15 15 15 16 17 18 20 22 22 22 24 25 25 25 25 24
14 14 14 14 14 15 15 16 16 16 17 18 19 21 21 21 23 24 25 25 26 26
14 14 15 16 17 17 17 18 18 19 19 19 20 20 19 21 23 23 24 25 24 25
16 17 17 18 18 19 19 19 19 19 18 19 19 19 20 21 22 24 24 25 24 25
18 19 19 20 20 20 20 21 20 20 19 19 19 19 19 21 22 23 23 23 24 24
20 21 21 21 21 21 21 21 21 20 20 20 19 20 21 21 20 20 20 18 18 23
20 20 21 21 21 21 21 22 22 22 21 21 20 20 20 19 19 18 16 15 16 20
20 19 19 20 21 21 22 23 23 23 21 21 21 20 20 19 19 19 17 16 14 17
Wind_Direction
302 300 305 309 308 306 302 298 292 286 291 293 294 296 297 295 294 293 291 290 289 288
292 294 303 308 307 305 301 299 293 288 285 285 289 292 293 294 295 294 292 288 285 284
290 299 305 309 309 307 304 300 295 290 285 284 285 288 290 292 291 289 288 285 283 282
298 303 307 310 312 312 310 307 300 292 288 286 285 286 286 287 288 288 289 286 283 281
304 307 310 311 312 312 311 306 299 292 288 286 286 285 285 288 288 286 285 285 281 280
300 303 308 311 313 317 318 317 311 303 296 292 291 291 291 290 288 284 282 280 278 278
306 308 309 315 320 321 322 321 316 309 302 297 294 292 291 289 286 282 279 277 276 275
302 307 312 313 317 318 319 316 314 311 306 302 299 297 295 290 287 283 279 274 274 275
303 304 306 311 313 313 313 313 312 309 307 305 302 300 296 289 284 282 281 281 276 274
303 305 306 307 307 306 306 306 306 306 306 305 303 300 299 296 294 292 289 283 278 272
300 301 301 301 303 305 307 309 308 306 305 304 307 309 307 304 301 298 293 288 279 271
301 302 302 302 304 305 304 304 303 303 304 305 310 312 313 310 308 305 301 292 275 274
296 297 297 299 301 303 303 303 304 305 306 308 312 314 312 312 311 308 306 294 274 267
297 297 299 301 304 304 304 304 304 306 309 309 311 312 312 310 306 302 297 292 282 282
Height
1526 1525 1524 1522 1521 1519 1517 1515 1514 1512 1510 1510 1508 1507 1506 1505 1504 1502 1501 1500 1498 1497
1523 1522 1520 1519 1516 1514 1512 1510 1508 1507 1505 1504 1504 1504 1502 1500 1500 1498 1496 1495 1494 1493
1519 1518 1516 1514 1511 1509 1507 1505 1503 1502 1501 1500 1499 1499 1497 1495 1495 1493 1492 1491 1489 1488
1516 1514 1512 1509 1507 1504 1502 1500 1499 1497 1496 1495 1494 1494 1493 1491 1490 1489 1488 1487 1485 1484
1512 1510 1508 1505 1503 1500 1497 1496 1493 1492 1491 1491 1490 1489 1487 1486 1485 1484 1483 1481 1480 1479
1507 1505 1503 1501 1499 1496 1494 1492 1490 1488 1487 1486 1485 1484 1482 1481 1479 1478 1477 1475 1474 1472
1503 1501 1500 1497 1495 1493 1490 1488 1486 1485 1484 1482 1481 1479 1477 1475 1473 1472 1470 1469 1467 1466
1499 1497 1496 1494 1492 1489 1487 1485 1483 1481 1479 1477 1475 1473 1472 1469 1467 1465 1464 1461 1460 1458
1495 1494 1492 1490 1488 1486 1484 1482 1480 1477 1475 1472 1470 1468 1467 1464 1461 1458 1456 1454 1453 1452
1492 1490 1488 1486 1484 1482 1480 1478 1475 1472 1470 1468 1466 1463 1460 1456 1453 1451 1450 1448 1446 1445
1489 1487 1485 1483 1481 1478 1476 1473 1470 1468 1465 1463 1461 1457 1454 1451 1448 1445 1442 1442 1440 1439
1485 1483 1480 1478 1476 1474 1471 1468 1467 1465 1462 1457 1455 1452 1448 1445 1442 1439 1437 1435 1435 1434
1480 1479 1477 1475 1471 1469 1467 1464 1460 1459 1456 1452 1448 1445 1443 1439 1437 1434 1432 1429 1429 1428
1476 1473 1472 1470 1467 1464 1461 1458 1455 1453 1450 1447 1444 1441 1437 1434 1432 1430 1427 1426 1424 1423